EHI
0 0 0 0 0 0 0 0 0 0 1 2 3 5 5 7 10 14 16 16 14 14 17 23 29 32 32 29 28 29 26 22 23 26 25 21 19 16 14 14 15 15 14 14
0 0 0 0 0 0 0 0 0 0 0 1 2 4 6 8 11 15 18 17 15 15 19 25 32 34 33 30 28 29 27 24 23 24 23 20 18 16 14 14 14 13 12 12
0 0 0 0 0 0 0 0 0 0 0 0 1 2 4 7 12 18 20 18 18 18 22 29 35 36 34 33 32 31 29 27 24 23 21 19 17 16 15 14 13 12 12 12
0 0 0 0 0 0 0 0 0 0 0 0 0 1 2 6 12 18 20 20 20 20 23 30 37 38 36 35 35 34 31 28 26 24 21 18 16 15 14 13 12 11 12 12
0 0 0 0 0 0 0 0 0 0 0 0 0 1 2 4 9 13 16 19 19 17 20 27 34 38 39 38 37 35 31 28 26 24 20 16 14 12 12 11 11 10 11 11
0 0 0 0 0 0 0 0 0 0 0 0 0 1 2 3 5 7 10 15 17 17 18 23 31 38 41 42 41 38 33 28 26 23 18 15 13 11 11 11 11 11 11 11
0 0 0 0 0 0 0 0 0 0 0 0 0 1 1 3 4 5 8 13 18 21 20 22 29 37 42 45 46 43 36 31 28 25 20 16 14 12 12 12 13 12 11 10
0 0 0 0 0 0 0 0 0 0 0 0 0 1 2 3 4 7 9 14 20 24 23 23 28 36 42 46 48 46 40 35 32 29 25 21 18 16 15 14 14 13 10 9
0 0 0 0 0 0 0 0 0 0 0 0 0 1 2 4 7 10 12 15 21 25 26 25 27 33 39 43 45 44 41 37 35 33 31 27 23 20 18 17 15 13 10 10
0 0 0 0 0 0 0 0 0 0 0 0 0 1 3 5 8 11 13 16 21 26 29 28 27 30 34 37 40 41 40 39 37 35 34 30 25 24 23 21 19 14 12 12
0 0 0 0 0 0 0 0 0 0 0 0 1 2 3 4 6 10 12 15 19 24 28 28 26 25 28 31 33 36 39 40 39 37 34 29 25 25 26 25 23 18 15 14
0 0 0 0 0 0 0 0 0 0 0 0 1 2 2 2 3 6 10 13 15 20 24 25 22 21 23 26 28 30 35 40 40 37 34 29 26 25 26 26 24 21 18 16
0 0 0 0 0 0 0 0 0 0 0 0 1 2 1 1 2 5 10 13 16 19 22 23 21 19 20 23 25 25 29 33 35 35 35 32 29 26 25 24 23 22 20 18
0 0 0 0 0 0 0 0 0 0 0 1 2 2 1 0 2 6 11 14 17 21 23 24 23 20 21 23 24 24 23 23 26 31 33 31 28 25 23 23 22 21 21 20
0 0 0 0 0 0 0 0 0 0 0 1 2 2 1 0 2 5 10 13 17 21 24 25 23 21 23 24 23 20 17 15 19 23 26 25 23 20 19 19 19 19 19 18
0 0 0 0 0 0 0 0 0 0 0 1 2 2 1 2 3 5 8 11 14 18 21 21 19 18 20 20 17 14 12 11 13 15 17 17 16 15 15 15 15 15 16 14
0 0 0 0 0 0 0 0 0 0 0 1 2 3 3 4 5 5 5 8 12 16 17 17 16 15 15 14 12 10 10 9 8 9 10 12 13 13 13 13 11 12 12 12
0 0 0 0 0 0 0 0 0 0 0 1 3 4 4 4 5 4 4 7 11 15 17 16 16 15 13 13 11 11 10 9 7 6 7 9 11 11 11 10 8 8 10 10
0 0 0 0 0 0 0 0 0 0 0 1 3 3 3 3 3 3 4 7 10 14 17 17 17 16 14 13 12 12 11 9 7 6 6 7 9 9 9 7 5 6 7 7
0 0 0 0 0 0 0 0 0 0 1 2 2 2 3 3 2 2 4 6 8 12 16 17 17 15 14 13 11 10 9 8 7 7 7 7 8 9 8 5 4 4 5 5
0 0 0 0 0 0 0 1 1 1 2 3 4 4 5 5 3 3 5 8 10 12 15 16 15 13 13 11 8 7 6 6 7 8 8 7 8 8 6 4 3 3 3 3
0 0 0 0 0 0 0 1 2 3 3 5 6 6 7 7 6 6 8 10 11 13 14 13 11 10 9 8 6 4 4 5 8 9 9 8 7 7 5 4 3 4 3 2
0 0 0 0 0 0 0 1 2 3 4 5 6 7 8 8 8 9 10 10 10 11 11 10 8 7 7 6 5 4 4 6 8 9 9 8 6 5 5 4 4 5 4 2
0 0 0 0 0 0 0 1 2 3 3 4 6 8 9 9 9 10 10 9 8 7 8 8 6 6 6 7 6 5 5 7 8 9 7 6 4 4 4 5 5 6 5 4
0 0 0 0 0 0 0 0 1 1 2 4 6 8 9 9 10 10 10 9 7 6 5 4 4 4 6 7 7 6 6 7 8 7 6 4 3 3 4 5 5 5 4 4
0 0 0 0 0 0 0 0 0 0 1 3 5 7 8 9 10 10 10 9 8 6 3 2 2 3 4 5 6 6 6 7 7 6 5 4 3 4 5 5 4 4 4 3
Wind_Speed
1 2 5 8 8 7 4 4 6 7 5 1 4 5 7 7 8 9 9 9 9 8 8 9 10 10 9 8 8 7 7 6 5 3 3 3 3 2 1 2 3 3 3 3
2 6 12 8 6 5 5 5 6 7 4 1 2 3 5 7 9 12 13 12 11 8 7 8 9 9 9 9 8 7 7 6 6 4 4 3 3 2 2 2 2 3 3 3
7 9 7 6 7 6 6 5 5 5 4 3 2 2 3 3 4 6 9 10 11 12 12 11 10 9 10 9 9 8 7 7 6 5 3 3 2 2 1 1 2 2 3 4
6 8 6 6 7 6 7 7 5 3 0 3 2 2 6 4 3 5 7 8 10 11 11 11 11 11 11 10 9 8 8 7 6 6 5 6 5 4 4 3 2 2 3 3
6 5 5 6 8 6 7 5 2 2 2 2 1 2 6 2 4 7 9 10 10 11 12 12 12 12 11 10 9 7 6 5 5 6 7 6 4 3 2 2 3 3 2 3
8 6 5 7 6 5 4 2 4 4 4 2 5 3 6 5 8 8 8 10 11 12 11 11 10 9 8 8 7 7 7 5 5 6 6 6 6 5 4 4 4 3 2 2
6 7 5 2 2 3 3 5 4 5 4 6 4 2 8 7 7 9 8 9 10 10 10 9 10 10 10 9 9 8 8 6 5 6 6 6 7 7 7 6 5 4 3 2
2 6 5 3 5 4 3 9 8 5 5 5 4 4 6 4 3 3 5 7 8 8 9 10 11 12 11 11 9 9 9 8 7 7 6 5 6 5 5 5 5 5 4 4
3 6 5 3 2 5 3 3 8 7 2 1 4 5 5 4 3 2 2 5 7 7 7 8 9 10 10 10 10 10 9 7 7 7 6 5 5 5 5 5 5 4 4 4
3 3 5 4 3 2 4 5 5 5 3 3 4 3 3 3 2 1 1 4 5 6 6 6 7 8 8 8 8 8 9 8 7 6 5 5 5 5 5 5 5 5 5 4
2 1 6 4 0 2 1 2 4 4 5 5 3 6 4 3 2 2 3 5 6 7 7 7 6 7 6 6 6 7 7 7 6 6 5 4 4 4 5 5 5 6 5 5
1 4 2 5 5 2 3 4 6 4 3 4 4 7 3 1 1 1 1 3 5 6 6 6 5 5 5 5 5 5 6 6 7 6 5 4 3 4 5 5 5 6 6 5
2 5 3 7 7 6 3 1 3 5 4 3 4 7 2 2 2 1 1 2 5 5 6 5 5 5 5 4 5 4 4 4 4 5 5 4 4 4 4 4 5 5 5 5
4 4 5 5 4 3 4 4 0 4 3 3 5 6 4 3 2 1 2 4 5 6 6 6 4 4 5 4 4 4 4 4 4 4 5 5 5 5 5 5 5 5 5 5
5 2 1 3 4 2 4 4 2 2 5 6 6 6 7 5 4 2 4 5 6 6 6 6 6 5 5 5 4 4 4 4 4 4 4 4 4 3 3 4 4 4 4 5
4 1 2 3 4 4 5 5 3 2 3 3 3 4 4 2 1 1 2 5 6 6 6 5 5 5 5 5 5 4 4 4 4 5 3 3 4 4 4 3 3 4 4 3
1 2 2 3 5 5 4 4 1 0 1 3 4 5 2 1 2 3 2 3 4 5 5 4 4 4 5 5 5 5 4 4 4 4 3 3 3 4 4 4 4 4 4 4
4 3 2 0 3 3 6 2 2 2 1 1 1 2 3 3 2 2 2 3 4 4 4 4 3 4 4 4 4 4 4 4 4 4 3 3 4 4 4 3 4 3 3 3
6 6 3 2 1 5 5 3 2 1 3 3 2 2 2 3 5 3 2 3 3 4 4 4 4 3 4 4 4 5 4 4 4 4 3 3 3 4 3 3 3 3 3 2
4 5 4 3 2 4 5 6 4 2 1 3 1 3 3 4 3 2 1 1 2 2 2 3 3 3 3 3 4 5 5 4 3 3 3 3 4 4 4 3 2 2 2 3
3 2 2 3 3 5 5 7 5 2 4 4 1 2 3 3 4 4 2 1 2 2 3 3 4 3 3 3 4 4 4 3 2 2 2 3 2 3 3 3 2 2 2 2
3 2 2 2 2 6 4 3 1 4 3 2 1 1 2 1 1 2 3 2 3 3 2 3 4 2 2 3 4 4 3 3 2 3 3 2 2 2 2 2 1 2 2 2
2 5 4 5 5 4 1 2 3 1 0 2 0 1 2 2 1 2 3 3 3 3 3 3 4 3 1 2 4 4 3 2 2 3 2 2 2 1 2 2 2 2 2 2
2 1 2 0 2 2 2 2 2 1 1 2 1 2 2 2 2 2 3 2 2 2 3 3 4 3 2 2 2 3 3 3 3 3 2 2 2 1 1 2 2 2 2 2
3 0 1 1 3 1 3 2 2 2 2 1 1 1 3 3 2 3 3 3 2 2 2 3 4 3 2 2 2 2 3 3 3 2 2 2 2 2 1 1 1 2 2 4
2 4 4 5 5 4 4 3 1 1 2 1 0 1 1 2 3 3 2 3 3 3 3 2 3 3 3 3 3 3 3 4 4 2 1 2 2 1 1 1 0 1 1 1
Wind_Direction
230 109 231 233 212 209 225 248 266 269 263 173 197 211 211 184 167 169 167 166 163 167 168 163 160 156 150 150 152 156 160 168 157 149 153 156 167 170 163 164 154 155 151 143
6 249 236 236 246 238 237 252 269 289 284 177 191 220 218 191 184 179 173 172 170 168 163 165 163 158 157 160 163 162 164 170 169 169 169 166 160 165 173 169 158 161 154 148
212 242 240 231 251 252 255 225 237 250 310 359 96 309 248 231 184 179 181 172 171 172 173 172 170 170 165 166 170 170 170 170 171 160 139 130 107 97 115 146 176 183 165 158
242 255 258 244 239 222 253 247 231 232 239 277 142 230 274 229 210 191 192 184 180 175 172 174 172 172 173 175 175 172 169 167 167 157 153 154 160 172 189 181 180 180 168 159
255 254 243 237 236 215 225 238 226 216 194 297 336 150 270 239 219 218 204 187 182 176 174 177 179 176 175 173 172 170 163 160 163 164 165 163 168 177 165 154 157 169 171 165
249 259 224 225 244 218 199 39 10 37 69 301 254 174 261 236 218 220 206 188 184 177 175 177 174 165 167 167 165 162 159 169 171 170 172 172 172 168 158 162 166 173 172 171
296 289 278 249 298 305 108 93 29 354 0 257 263 199 243 246 224 209 200 188 182 170 167 169 164 165 168 169 168 164 165 175 181 177 183 186 183 175 175 176 171 172 170 177
256 284 272 234 198 212 186 140 158 194 226 272 316 234 254 260 229 197 181 172 167 161 165 169 169 169 169 171 169 168 172 180 186 186 189 190 184 179 180 177 172 179 181 185
199 260 283 280 220 164 165 171 171 149 194 259 281 282 309 350 12 49 140 153 164 163 163 165 165 166 167 170 174 175 178 182 189 190 185 182 182 179 179 179 177 182 182 178
168 271 292 295 12 16 158 160 98 116 162 242 277 266 258 304 317 28 133 157 163 155 147 152 153 159 163 168 175 178 175 180 187 185 185 181 186 184 180 175 178 177 178 173
100 144 312 352 136 240 25 82 108 126 153 161 240 269 236 220 232 200 186 168 162 159 156 151 150 151 151 151 161 173 176 175 179 185 188 187 187 182 177 178 179 177 173 173
60 113 292 277 269 213 162 168 139 145 228 169 172 259 270 191 248 177 160 148 149 148 150 149 151 148 148 148 154 163 172 172 178 182 176 181 186 178 177 182 180 173 171 177
61 92 34 339 343 2 27 17 139 137 131 162 176 253 271 15 23 52 83 120 125 131 133 131 141 142 148 152 151 154 165 163 165 170 165 162 175 184 182 185 177 171 168 169
82 100 154 197 235 287 305 312 356 121 149 207 213 231 276 293 301 288 134 131 135 136 138 132 134 138 143 147 148 147 154 150 145 150 154 163 177 187 186 180 171 166 165 165
74 83 269 255 274 301 293 302 284 197 192 193 220 218 233 232 227 206 149 134 140 149 152 149 147 145 141 138 140 141 146 144 139 136 151 167 170 164 167 173 164 155 156 167
60 94 17 325 328 340 326 314 288 234 205 196 200 247 241 216 147 110 129 129 141 152 155 151 147 145 147 147 147 141 139 140 134 138 152 165 161 154 155 167 164 153 146 148
68 112 74 295 318 359 317 306 328 252 188 166 208 231 194 143 168 168 145 118 131 133 137 148 153 155 160 161 156 154 152 143 139 145 153 164 143 141 152 165 163 161 156 151
160 128 134 259 19 257 247 286 53 65 41 67 164 171 171 165 166 124 119 119 116 118 126 142 157 159 164 157 146 142 138 139 140 137 147 156 145 136 138 145 167 172 162 159
161 145 133 130 198 276 295 333 9 32 325 354 83 105 121 103 76 46 45 90 132 144 143 156 158 157 153 149 146 136 132 130 135 146 159 157 144 140 144 158 181 179 162 172
86 112 126 145 182 233 264 305 308 117 284 326 79 130 133 103 103 240 245 111 108 117 144 144 129 119 129 144 139 134 138 138 154 169 166 159 152 158 167 173 194 196 173 185
43 58 133 171 213 252 275 311 345 129 241 307 331 162 141 168 192 198 178 130 140 137 158 143 131 133 154 153 136 138 144 157 174 157 142 142 151 165 170 171 178 160 159 158
163 152 182 158 199 247 296 1 76 226 260 319 22 106 116 124 109 126 137 141 134 127 139 136 128 135 173 155 143 142 167 182 160 146 142 146 155 174 165 161 180 173 159 164
168 182 180 184 213 240 258 214 239 213 296 313 79 128 135 121 142 165 163 155 154 156 161 137 132 140 171 172 159 162 191 169 144 139 153 171 174 178 168 168 175 174 161 167
299 134 126 227 268 270 298 302 322 295 249 269 217 146 127 136 165 157 153 152 152 150 151 140 136 146 175 201 180 176 176 157 144 150 170 180 175 181 172 173 175 173 175 175
245 292 141 234 260 313 311 293 299 306 296 252 161 150 144 129 136 154 155 163 175 171 165 151 149 163 190 198 196 184 161 147 147 160 173 184 186 193 194 184 192 193 208 198
226 184 179 215 217 190 242 260 259 307 317 309 20 74 108 139 142 145 175 182 169 167 159 151 158 171 192 193 203 204 173 156 154 159 175 191 192 198 189 172 346 327 244 218